Weather History for Morristown, NJ

Change the Weather History Date:

Wednesday, November 21, 2012

  Actual Average Record
Temperature  
Mean Temperature 38 °F -  
Max Temperature 53 °F 53 °F 78 °F (1953)
Min Temperature 24 °F 30 °F 14 °F (1951)
Degree Days  
Heating Degree Days 26    
Moisture  
Dew Point 27 °F    
Average Humidity 82    
Maximum Humidity 100    
Minimum Humidity 28    
Precipitation  
Precipitation 0.00 in - - ()
Sea Level Pressure  
Sea Level Pressure 30.19 in    
Wind  
Wind Speed 1 mph (ENE)    
Max Wind Speed 8 mph    
Max Gust Speed -    
Visibility 10 miles    
Events      
Averages and records for this station are not official NWS values.
T = Trace of Precipitation, MM = Missing Value Source: NWS Daily Summary

Daily Weather History Graph

Daily Weather History Graph

Search for Another Location

Airport:

Trip Planner

Search our weather history database for the weather conditions in past years. The results will help you decide how hot, cold, wet, or windy it might be!

Date:

Astronomy

Nov. 21, 2012 Rise Set
Actual Time 6:52 AM EST 4:34 PM EST
Civil Twilight 6:22 AM EST 5:04 PM EST
Nautical Twilight 5:48 AM EST 5:38 PM EST
Astronomical Twilight 5:16 AM EST 6:10 PM EST
Moon 12:52 PM EST (11/21) 12:06 AM EST (11/21)
Length of Visible Light 10h 42m
Length of Day
9h 42m
First Quarter, 61% of the Moon is Illuminated
Nov 21
First Quarter
Nov 28
Full
Dec 6
Last Quarter
Dec 13
New
Dec 20
First Quarter

Hourly Weather History & Observations

Time (EST) Temp. Windchill Dew Point Humidity Pressure Visibility Wind Dir Wind Speed Gust Speed Precip Events Conditions
12:15 AM 30.2 °F - 30.2 °F 100% 30.15 in 10.0 mi Calm Calm - N/A   Clear
12:35 AM 32.0 °F - 32.0 °F 100% 30.15 in 10.0 mi Calm Calm - N/A   Clear
12:55 AM 32.0 °F - 32.0 °F 100% 30.15 in 10.0 mi Calm Calm - N/A   Clear
1:15 AM 32.0 °F - 32.0 °F 100% 30.15 in 10.0 mi Calm Calm - N/A   Clear
1:35 AM 32.0 °F - 32.0 °F 100% 30.15 in 10.0 mi Calm Calm - N/A   Clear
1:55 AM 32.0 °F - 30.2 °F 93% 30.16 in 10.0 mi Calm Calm - N/A   Clear
2:15 AM 32.0 °F - 30.2 °F 93% 30.16 in 10.0 mi Calm Calm - N/A   Clear
2:35 AM 30.2 °F - 28.4 °F 93% 30.16 in 10.0 mi Calm Calm - N/A   Clear
2:55 AM 30.2 °F - 30.2 °F 100% 30.16 in 10.0 mi Calm Calm - N/A   Clear
3:15 AM 30.2 °F - 30.2 °F 100% 30.16 in 10.0 mi Calm Calm - N/A   Clear
3:35 AM 28.4 °F - 28.4 °F 100% 30.16 in 10.0 mi Calm Calm - N/A   Clear
3:55 AM 28.4 °F - 28.4 °F 100% 30.16 in 10.0 mi Calm Calm - N/A   Clear
4:15 AM 28.4 °F - 28.4 °F 100% 30.17 in 10.0 mi Calm Calm - N/A   Clear
4:35 AM 28.4 °F - 28.4 °F 100% 30.17 in 10.0 mi Calm Calm - N/A   Clear
4:55 AM 26.6 °F - 26.6 °F 100% 30.18 in 5.0 mi Calm Calm - N/A   Clear
5:15 AM 26.6 °F - 26.6 °F 100% 30.18 in 5.0 mi Calm Calm - N/A   Clear
5:35 AM 26.6 °F - 26.6 °F 100% 30.18 in 7.0 mi Calm Calm - N/A   Clear
6:45 AM 24.8 °F - 24.8 °F 100% 30.20 in 7.0 mi Calm Calm - N/A   Scattered Clouds
7:45 AM 30.2 °F - 28.4 °F 93% 30.22 in 8.0 mi Calm Calm - N/A   Scattered Clouds
8:45 AM 35.6 °F - 32.0 °F 87% 30.22 in 8.0 mi Calm Calm - N/A   Scattered Clouds
9:45 AM 46.4 °F 43.5 °F 32.0 °F 57% 30.22 in 15.0 mi ENE 5.8 mph - N/A   Partly Cloudy
10:45 AM 50.0 °F - 32.0 °F 50% 30.23 in 15.0 mi NE 8.1 mph - N/A   Partly Cloudy
11:45 AM 51.8 °F - 28.4 °F 41% 30.20 in 15.0 mi ENE 6.9 mph - N/A   Clear
12:45 PM 53.6 °F - 28.4 °F 38% 30.19 in 10.0 mi East 5.8 mph - N/A   Partly Cloudy
1:45 PM 53.6 °F - 26.6 °F 35% 30.17 in 10.0 mi NE 8.1 mph - N/A   Partly Cloudy
2:45 PM 53.6 °F - 24.8 °F 33% 30.17 in 10.0 mi ESE 4.6 mph - N/A   Partly Cloudy
3:45 PM 53.6 °F - 21.2 °F 28% 30.18 in 10.0 mi ENE 5.8 mph - N/A   Partly Cloudy
4:45 PM 46.4 °F 45.2 °F 19.4 °F 34% 30.19 in 10.0 mi NE 3.5 mph - N/A   Partly Cloudy
5:45 PM 39.2 °F - 23.0 °F 52% 30.20 in 10.0 mi Calm Calm - N/A   Clear
6:45 PM 33.8 °F - 24.8 °F 70% 30.22 in 10.0 mi Calm Calm - N/A   Clear
7:45 PM 46.4 °F - 24.8 °F 43% 30.24 in 10.0 mi Calm Calm - N/A   Clear
8:55 PM 30.2 °F - 24.8 °F 80% 30.25 in 10.0 mi Calm Calm - N/A   Clear
9:45 PM 28.4 °F - 24.8 °F 86% 30.24 in 10.0 mi Calm Calm - N/A   Clear
9:55 PM 28.4 °F - 26.6 °F 93% 30.24 in 10.0 mi Calm Calm - N/A   Clear
10:15 PM 28.4 °F - 26.6 °F 93% 30.24 in 10.0 mi Calm Calm - N/A   Clear
10:35 PM 26.6 °F - 24.8 °F 93% 30.24 in 10.0 mi Calm Calm - N/A   Clear
10:55 PM 26.6 °F - 24.8 °F 93% 30.24 in 10.0 mi Calm Calm - N/A   Clear
11:15 PM 26.6 °F - 26.6 °F 100% 30.24 in 10.0 mi Calm Calm - N/A   Clear
11:35 PM 26.6 °F - 24.8 °F 93% 30.24 in 10.0 mi Calm Calm - N/A   Clear
11:55 PM 26.6 °F - 24.8 °F 93% 30.24 in 10.0 mi Calm Calm - N/A   Clear